Weather History for North Myrtle Beach, SC

Change the Weather History Date:

Sunday, February 16, 2014

  Actual Average Record
Temperature  
Mean Temperature 40 °F 48 °F  
Max Temperature 49 °F 58 °F 77 °F (1949)
Min Temperature 30 °F 39 °F 19 °F (1991)
Degree Days  
Heating Degree Days 25 17  
Month to date heating degree days 337 289  
Since 1 July heating degree days 1860 1757  
Cooling Degree Days 0 0  
Month to date cooling degree days 0 0  
Year to date cooling degree days 0 0  
Moisture  
Dew Point 30 °F    
Average Humidity 62    
Maximum Humidity 92    
Minimum Humidity 31    
Precipitation  
Precipitation 0.00 in 0.14 in 0.32 in (2003)
Month to date precipitation 1.93 1.87  
Year to date precipitation 3.74 5.56  
Sea Level Pressure  
Sea Level Pressure 30.11 in    
Wind  
Wind Speed 5 mph (SSE)    
Max Wind Speed 12 mph    
Max Gust Speed 16 mph    
Visibility 10 miles    
Events      
T = Trace of Precipitation, MM = Missing Value Source: NWS Daily Summary

Daily Weather History Graph

Daily Weather History Graph

Search for Another Location

Airport:

Trip Planner

Search our weather history database for the weather conditions in past years. The results will help you decide how hot, cold, wet, or windy it might be!

Date:

Astronomy

Feb. 16, 2014 Rise Set
Actual Time 6:58 AM EST 6:00 PM EST
Civil Twilight 6:32 AM EST 6:25 PM EST
Nautical Twilight 6:03 AM EST 6:54 PM EST
Astronomical Twilight 5:34 AM EST 7:23 PM EST
Moon 7:47 PM EST (2/16) 7:33 AM EST (2/16)
Length of Visible Light 11h 52m
Length of Day
11h 01m
Full, 97% of the Moon is Illuminated
Feb 16
Full
Feb 22
Last Quarter
Mar 1
New
Mar 8
First Quarter
Mar 16
Full

Hourly Weather History & Observations

Time (EST) Temp. Windchill Dew Point Humidity Pressure Visibility Wind Dir Wind Speed Gust Speed Precip Events Conditions
12:53 AM 32.0 °F - 28.0 °F 85% 30.08 in 10.0 mi Calm Calm - N/A   Clear
1:53 AM 30.0 °F - 26.1 °F 85% 30.07 in 10.0 mi Calm Calm - N/A   Partly Cloudy
2:53 AM 32.0 °F 27.5 °F 28.0 °F 85% 30.06 in 10.0 mi NE 4.6 mph - N/A   Partly Cloudy
3:53 AM 35.1 °F - 26.1 °F 70% 30.07 in 10.0 mi Calm Calm - N/A   Scattered Clouds
4:53 AM 36.0 °F - 27.0 °F 70% 30.09 in 10.0 mi Calm Calm - N/A   Overcast
5:53 AM 36.0 °F - 26.1 °F 67% 30.11 in 10.0 mi Calm Calm - N/A   Mostly Cloudy
6:53 AM 36.0 °F 33.3 °F 24.1 °F 62% 30.11 in 10.0 mi NNE 3.5 mph - N/A   Overcast
7:53 AM 36.0 °F 32.1 °F 25.0 °F 64% 30.14 in 10.0 mi NNE 4.6 mph - N/A   Overcast
8:53 AM 37.9 °F - 26.1 °F 62% 30.17 in 10.0 mi Calm Calm - N/A   Overcast
9:53 AM 44.1 °F 40.1 °F 19.9 °F 38% 30.16 in 10.0 mi ENE 6.9 mph - N/A   Mostly Cloudy
10:53 AM 46.9 °F - 18.0 °F 32% 30.16 in 10.0 mi East 3.5 mph - N/A   Clear
11:53 AM 48.0 °F - 21.9 °F 36% 30.14 in 10.0 mi SE 8.1 mph - N/A   Clear
12:53 PM 48.0 °F - 21.0 °F 34% 30.12 in 10.0 mi South 5.8 mph - N/A   Clear
1:53 PM 48.0 °F - 27.0 °F 44% 30.10 in 10.0 mi South 9.2 mph - N/A   Clear
2:53 PM 48.0 °F - 32.0 °F 54% 30.09 in 10.0 mi South 9.2 mph - N/A   Clear
3:53 PM 48.0 °F - 35.1 °F 61% 30.09 in 10.0 mi South 9.2 mph - N/A   Clear
4:53 PM 48.0 °F - 37.0 °F 66% 30.08 in 10.0 mi SSW 10.4 mph - N/A   Clear
5:53 PM 46.0 °F 41.4 °F 37.9 °F 73% 30.10 in 10.0 mi SSW 9.2 mph - N/A   Clear
6:53 PM 46.0 °F 42.5 °F 37.9 °F 73% 30.12 in 10.0 mi SSW 6.9 mph - N/A   Clear
7:53 PM 45.0 °F 41.8 °F 39.0 °F 80% 30.12 in 10.0 mi SSW 5.8 mph - N/A   Clear
8:53 PM 45.0 °F 40.1 °F 39.9 °F 82% 30.12 in 10.0 mi SW 9.2 mph - N/A   Clear
9:53 PM 44.1 °F 41.5 °F 39.0 °F 82% 30.13 in 10.0 mi SW 4.6 mph - N/A   Clear
10:53 PM 39.0 °F - 37.0 °F 93% 30.15 in 9.0 mi Calm Calm - N/A   Clear
11:53 PM 37.0 °F - 35.1 °F 93% 30.14 in 7.0 mi Calm Calm - N/A   Clear